sat.trackr.live / text

‹ back to catalog

STARLINK-37286

NORAD 68512 · 2026-068E

PAYLOAD ACTIVE UNKNOWN

§ Identity

Operator
Country
US
Launch date
2026-03-30
Launch site
AFETR
Launch vehicle
Mass (kg)
RCS (m²)

Purposes: comms

External: N2YO · Heavens-Above · Gunter

§ Orbital elements

Epoch: 2026-05-25T05:01:36.003072Z

Period
92.94 min
Inclination
53.1581°
Eccentricity
0.0001504
Mean motion
15.49327851 rev/d
Perigee alt
417.7 km
Apogee alt
419.7 km
Semi-major
6,796.8 km
B*
1.0695e-3
RAAN
127.8253°
Arg perigee
99.2547°
Mean anomaly
260.8633°
Rev number
874

§ Raw data

STARLINK-372861 68512U 26068E   26145.20944448  .00059530  00000+0  10695-2 0  99912 68512  53.1581 127.8253 0001504  99.2547 260.8633 15.49327851  8743

JSON: /api/v1/satellites/68512 · /tle

For live sub-satellite position, see the globe view (requires WebGL).

§ Visibility from observer

Set your observer location to see the next 7 days of passes ≥ 10°. The values pass through the URL so the page stays shareable.

No JS? Fill the form by hand. The geolocation button needs JavaScript.